Weather History for KRPJ - May, 2013

Change the Weather History Date:

Tuesday, May 14, 2013

  Actual Average (KRFD) Record (KRFD)
Temperature  
Mean Temperature 73 °F 60 °F  
Max Temperature 93 °F 71 °F 92 °F (2007)
Min Temperature 53 °F 48 °F 33 °F (1943)
Degree Days  
Heating Degree Days 0 7  
Month to date heating degree days 119  
Since 1 July heating degree days 6459  
Cooling Degree Days 8 1  
Month to date cooling degree days 12  
Year to date cooling degree days 20  
Growing Degree Days 23 (Base 50)    
Moisture  
Dew Point 46 °F    
Average Humidity 42    
Maximum Humidity 66    
Minimum Humidity 14    
Precipitation  
Precipitation 0.00 in 0.13 in 2.35 in (1945)
Month to date precipitation 1.64  
Year to date precipitation 10.09  
Snow  
Snow 0.00 in 0.00 in 0.00 in ()
Month to date snowfall 0.0  
Since 1 July snowfall 36.7  
Snow Depth -    
Sea Level Pressure  
Sea Level Pressure 29.77 in    
Wind  
Wind Speed 14 mph (SW)    
Max Wind Speed 24 mph    
Max Gust Speed 25 mph    
Visibility 10 miles    
Events Rain    
T = Trace of Precipitation, MM = Missing Value Source: NWS Daily Summary

Daily Weather History Graph

Daily Weather History Graph

Search for Another Location

Airport or City:

Trip Planner

Search our weather history database for the weather conditions in past years. The results will help you decide how hot, cold, wet, or windy it might be!

Date:

Astronomy

May. 14, 2013 Rise Set
Actual Time 5:36 AM CDT 8:09 PM CDT
Civil Twilight 5:05 AM CDT 8:40 PM CDT
Nautical Twilight 4:25 AM CDT 9:20 PM CDT
Astronomical Twilight 3:41 AM CDT 10:05 PM CDT
Moon 9:16 AM CDT (5/14) 11:55 PM CDT (5/14)
Length of Visible Light 15h 35m
Length of Day
14h 32m
Waxing Crescent, 19% of the Moon is Illuminated
May 14
Waxing Crescent
May 17
First Quarter
May 24
Full
May 31
Last Quarter
Jun 8
New

Hourly Weather History & Observations

Time (CDT) Temp. Heat Index Dew Point Humidity Pressure Visibility Wind Dir Wind Speed Gust Speed Precip Events Conditions
12:15 AM 55.0 °F - 35.6 °F 48% 29.96 in 10.0 mi South 11.5 mph - N/A   Clear
12:35 AM 53.4 °F - 36.5 °F 53% 29.94 in 10.0 mi SSE 12.7 mph - N/A   Clear
12:55 AM 54.5 °F - 36.5 °F 51% 29.94 in 10.0 mi South 12.7 mph - N/A   Clear
1:15 AM 55.4 °F - 36.5 °F 49% 29.93 in 10.0 mi South 15.0 mph - N/A   Clear
1:35 AM 56.3 °F - 36.5 °F 47% 29.91 in 10.0 mi South 18.4 mph - N/A   Clear
1:55 AM 56.3 °F - 36.9 °F 48% 29.91 in 10.0 mi South 18.4 mph - N/A   Clear
2:15 AM 55.8 °F - 37.2 °F 50% 29.90 in 10.0 mi South 17.3 mph - N/A   Clear
2:35 AM 55.8 °F - 37.6 °F 51% 29.89 in 10.0 mi South 19.6 mph - N/A   Clear
2:55 AM 55.4 °F - 37.8 °F 52% 29.88 in 10.0 mi South 17.3 mph - N/A   Clear
3:15 AM 55.4 °F - 37.8 °F 52% 29.87 in 10.0 mi South 17.3 mph - N/A   Clear
3:35 AM 55.0 °F - 38.1 °F 53% 29.86 in 10.0 mi South 17.3 mph - N/A   Clear
3:55 AM 54.7 °F - 38.5 °F 54% 29.85 in 10.0 mi South 17.3 mph - N/A   Clear
4:15 AM 54.5 °F - 39.0 °F 56% 29.85 in 10.0 mi South 17.3 mph - N/A   Clear
4:35 AM 54.0 °F - 39.4 °F 58% 29.84 in 10.0 mi South 15.0 mph - N/A   Clear
4:55 AM 53.6 °F - 39.7 °F 59% 29.83 in 10.0 mi South 15.0 mph - N/A   Clear
5:15 AM 53.6 °F - 40.3 °F 61% 29.82 in 10.0 mi South 15.0 mph - N/A   Clear
5:35 AM 53.2 °F - 41.0 °F 63% 29.81 in 10.0 mi South 15.0 mph - N/A   Clear
5:55 AM 53.4 °F - 41.5 °F 64% 29.81 in 10.0 mi South 13.8 mph - N/A   Clear
6:15 AM 54.1 °F - 42.3 °F 64% 29.81 in 10.0 mi SSW 13.8 mph - N/A   Clear
6:35 AM 54.7 °F - 43.3 °F 66% 29.81 in 10.0 mi SSW 11.5 mph - N/A   Clear
6:55 AM 56.8 °F - 44.6 °F 64% 29.81 in 10.0 mi SSW 12.7 mph - N/A   Clear
7:15 AM 59.0 °F - 46.0 °F 62% 29.80 in 10.0 mi SSW 15.0 mph 18.4 mph N/A   Clear
7:35 AM 61.0 °F - 47.3 °F 61% 29.79 in 10.0 mi SSW 16.1 mph - N/A   Clear
7:55 AM 63.3 °F - 48.4 °F 58% 29.80 in 10.0 mi SW 16.1 mph - N/A   Clear
8:15 AM 66.4 °F - 50.0 °F 56% 29.80 in 10.0 mi SW 21.9 mph 25.3 mph N/A   Clear
8:35 AM 66.7 °F - 50.2 °F 55% 29.79 in 10.0 mi WSW 19.6 mph 24.2 mph N/A   Clear
8:55 AM 67.5 °F - 50.2 °F 54% 29.79 in 10.0 mi WSW 24.2 mph - N/A   Clear
9:15 AM 69.3 °F - 51.3 °F 53% 29.79 in 10.0 mi WSW 19.6 mph 24.2 mph N/A   Clear
9:35 AM 71.2 °F - 51.3 °F 49% 29.78 in 10.0 mi West 18.4 mph 21.9 mph N/A   Clear
9:55 AM 72.0 °F - 51.8 °F 49% 29.78 in 10.0 mi West 16.1 mph 21.9 mph N/A   Clear
10:15 AM 73.4 °F - 52.2 °F 47% 29.77 in 10.0 mi West 16.1 mph 21.9 mph N/A   Clear
10:35 AM 75.0 °F - 51.4 °F 44% 29.77 in 10.0 mi WSW 15.0 mph - N/A   Clear
10:55 AM 76.1 °F - 50.7 °F 41% 29.76 in 10.0 mi West 15.0 mph 18.4 mph N/A   Clear
11:15 AM 77.4 °F - 51.6 °F 41% 29.77 in 10.0 mi West 12.7 mph - N/A   Clear
11:35 AM 79.3 °F - 51.3 °F 37% 29.77 in 10.0 mi WSW 15.0 mph 21.9 mph N/A   Clear
11:55 AM 80.8 °F - 51.1 °F 35% 29.77 in 10.0 mi West 13.8 mph - N/A   Clear
12:15 PM 81.7 °F - 50.9 °F 34% 29.77 in 10.0 mi WSW 13.8 mph 18.4 mph N/A   Clear
12:35 PM 83.5 °F - 50.4 °F 32% 29.78 in 10.0 mi West 10.4 mph - N/A   Clear
12:55 PM 84.6 °F - 49.8 °F 30% 29.77 in 10.0 mi West 9.2 mph 18.4 mph N/A   Clear
1:15 PM 86.0 °F - 50.7 °F 30% 29.77 in 10.0 mi WNW 11.5 mph - N/A   Clear
1:35 PM 87.1 °F - 49.5 °F 27% 29.76 in 10.0 mi WNW 10.4 mph - N/A   Clear
1:55 PM 88.3 °F - 48.0 °F 25% 29.76 in 10.0 mi West 9.2 mph - N/A   Clear
2:15 PM 89.4 °F - 47.3 °F 23% 29.74 in 10.0 mi West 8.1 mph 16.1 mph N/A   Clear
2:35 PM 90.3 °F - 41.5 °F 18% 29.74 in 10.0 mi West 5.8 mph - N/A   Clear
2:55 PM 91.2 °F - 39.9 °F 17% 29.74 in 10.0 mi WNW 5.8 mph - N/A   Clear
3:15 PM 91.8 °F - 41.7 °F 17% 29.74 in 10.0 mi NW 8.1 mph - N/A   Clear
3:35 PM 92.1 °F - 41.5 °F 17% 29.74 in 10.0 mi WNW 9.2 mph - N/A   Clear
3:55 PM 91.9 °F - 39.0 °F 16% 29.73 in 10.0 mi NW 4.6 mph - N/A   Clear
4:15 PM 92.5 °F - 37.0 °F 14% 29.72 in 10.0 mi Calm Calm - N/A   Clear
4:35 PM 93.4 °F - 37.8 °F 14% 29.71 in 10.0 mi SW 6.9 mph - N/A   Clear
4:55 PM 93.2 °F - 39.4 °F 15% 29.70 in 10.0 mi SSW 8.1 mph - N/A   Clear
5:15 PM 93.0 °F - 37.9 °F 15% 29.69 in 10.0 mi SSW 8.1 mph 20.7 mph N/A   Clear
5:35 PM 93.2 °F - 37.2 °F 14% 29.68 in 10.0 mi SSW 12.7 mph - N/A   Clear
5:55 PM 92.5 °F - 40.5 °F 16% 29.67 in 7.0 mi South 15.0 mph - N/A   Clear
6:15 PM 92.3 °F - 37.8 °F 15% 29.66 in 7.0 mi South 19.6 mph - N/A   Clear
6:35 PM 90.5 °F - 43.9 °F 20% 29.65 in 7.0 mi SSW 18.4 mph - N/A   Clear
6:55 PM 89.6 °F - 48.0 °F 24% 29.65 in 7.0 mi South 20.7 mph - N/A   Clear
7:15 PM 87.6 °F - 51.6 °F 29% 29.65 in 7.0 mi SSW 23.0 mph - N/A   Clear
7:35 PM 86.0 °F 84.2 °F 53.4 °F 33% 29.66 in 10.0 mi South 19.6 mph - N/A   Clear
7:55 PM 83.7 °F 82.7 °F 55.2 °F 38% 29.65 in 10.0 mi SSW 18.4 mph 24.2 mph N/A   Clear
8:15 PM 81.7 °F 81.3 °F 55.9 °F 41% 29.65 in 10.0 mi SSW 17.3 mph - N/A   Clear
8:35 PM 80.6 °F 80.5 °F 55.6 °F 42% 29.66 in 10.0 mi SSW 16.1 mph - N/A   Clear
8:55 PM 79.0 °F - 56.3 °F 46% 29.67 in 10.0 mi SSW 16.1 mph - N/A   Clear
9:15 PM 77.9 °F - 57.6 °F 49% 29.67 in 10.0 mi SSW 15.0 mph - N/A   Clear
9:35 PM 77.4 °F - 59.0 °F 53% 29.68 in 10.0 mi SSW 15.0 mph - N/A   Clear
9:55 PM 76.5 °F - 59.0 °F 55% 29.74 in 10.0 mi North 13.8 mph 19.6 mph N/A   Clear
10:15 PM 81.5 °F 81.3 °F 56.3 °F 42% 29.72 in 10.0 mi WSW 13.8 mph 24.2 mph N/A   Clear
10:35 PM 79.7 °F - 57.0 °F 46% 29.70 in 10.0 mi Calm Calm - N/A Rain Light Rain
10:55 PM 77.2 °F - 57.2 °F 50% 29.69 in 10.0 mi SW 9.2 mph - N/A   Clear
11:15 PM 76.3 °F - 57.7 °F 53% 29.68 in 10.0 mi SSW 8.1 mph - N/A   Clear
11:35 PM 76.8 °F - 57.0 °F 50% 29.67 in 10.0 mi SSW 10.4 mph - N/A   Clear
11:55 PM 75.4 °F - 56.7 °F 52% 29.67 in 10.0 mi SSW 13.8 mph - N/A   Clear